AEE86E LGAV-LOWW

Flight info

Callsign AEE86E
Flight time 1h 54m
Altitude 36000
Route KRO UT162 KOROS DCT PEREN UL863 EVIVI DCT OKANA DCT PARAK DCT BALUX DCT TORNO DCT NATEX NATEX2W
Aircraft A320/M-SDE3FGHIRWY/LB1

Departure

Time 2026-04-21 20:58
Airport Athens Eleftherios Venizelos International Airport (LGAV)

Arrival

Time 2026-04-21 22:52
Airport Vienna International Airport (LOWW)
Time Latitude Longitude Altitude Speed Heading
2026-04-21 20:45 37.93409 23.94657 322 ft 0 kts 307°
2026-04-21 20:46 37.93408 23.94659 322 ft 1 kts 307°
2026-04-21 20:46 37.93399 23.94674 322 ft 3 kts 307°
2026-04-21 20:47 37.93387 23.94694 322 ft 3 kts 307°
2026-04-21 20:47 37.93375 23.94714 322 ft 3 kts 307°
2026-04-21 20:47 37.93365 23.94733 322 ft 1 kts 330°
2026-04-21 20:47 37.93361 23.94735 322 ft 0 kts 15°
2026-04-21 20:49 37.93363 23.94735 322 ft 1 kts 15°
2026-04-21 20:50 37.93371 23.94740 322 ft 1 kts 30°
2026-04-21 20:50 37.93381 23.94751 322 ft 3 kts 41°
2026-04-21 20:50 37.93399 23.94770 322 ft 4 kts 41°
2026-04-21 20:50 37.93426 23.94799 322 ft 6 kts 40°
2026-04-21 20:51 37.93447 23.94825 322 ft 6 kts 64°
2026-04-21 20:51 37.93434 23.94886 322 ft 9 kts 122°
2026-04-21 20:51 37.93387 23.94985 322 ft 11 kts 107°
2026-04-21 20:51 37.93424 23.95068 322 ft 12 kts 38°
2026-04-21 20:52 37.93499 23.95139 322 ft 15 kts 37°
2026-04-21 20:52 37.93587 23.95221 322 ft 17 kts 36°
2026-04-21 20:52 37.93652 23.95282 322 ft 18 kts 36°
2026-04-21 20:52 37.93753 23.95379 322 ft 19 kts 37°
2026-04-21 20:53 37.93861 23.95481 322 ft 20 kts 36°
2026-04-21 20:53 37.93976 23.95588 322 ft 22 kts 36°
2026-04-21 20:53 37.94090 23.95698 322 ft 21 kts 38°
2026-04-21 20:53 37.94246 23.95853 322 ft 20 kts 34°
2026-04-21 20:54 37.94327 23.95924 322 ft 22 kts 35°
2026-04-21 20:54 37.94440 23.96031 322 ft 21 kts 37°
2026-04-21 20:54 37.94558 23.96144 322 ft 22 kts 37°
2026-04-21 20:54 37.94685 23.96266 322 ft 24 kts 37°
2026-04-21 20:55 37.94823 23.96397 322 ft 26 kts 37°
2026-04-21 20:55 37.94953 23.96519 322 ft 23 kts 36°
2026-04-21 20:55 37.95080 23.96639 322 ft 22 kts 36°
2026-04-21 20:55 37.95204 23.96756 322 ft 21 kts 37°
2026-04-21 20:56 37.95298 23.96870 322 ft 15 kts 91°
2026-04-21 20:56 37.95244 23.96991 322 ft 17 kts 125°
2026-04-21 20:56 37.95171 23.97000 322 ft 0 kts 216°
2026-04-21 20:57 37.95169 23.96999 322 ft 1 kts 216°
2026-04-21 20:57 37.95121 23.96955 322 ft 28 kts 216°
2026-04-21 20:57 37.94761 23.96613 322 ft 99 kts 216°
2026-04-21 20:58 37.94039 23.95927 325 ft 157 kts 216°
2026-04-21 20:58 37.93110 23.95054 732 ft 167 kts 216°
2026-04-21 20:58 37.92120 23.94276 1404 ft 168 kts 205°
2026-04-21 20:58 37.91054 23.93656 2065 ft 170 kts 204°
2026-04-21 20:59 37.89957 23.92950 2412 ft 185 kts 207°
2026-04-21 20:59 37.88801 23.92150 2754 ft 199 kts 207°
2026-04-21 20:59 37.87539 23.91277 3136 ft 214 kts 208°
2026-04-21 20:59 37.86171 23.90346 3580 ft 229 kts 209°
2026-04-21 21:00 37.84732 23.89374 4174 ft 240 kts 210°
2026-04-21 21:00 37.83241 23.88354 4839 ft 246 kts 210°
2026-04-21 21:00 37.81725 23.87317 5616 ft 249 kts 211°
2026-04-21 21:00 37.80195 23.86271 6379 ft 252 kts 211°
2026-04-21 21:01 37.78639 23.85221 7108 ft 256 kts 209°
2026-04-21 21:01 37.76914 23.84545 7791 ft 266 kts 187°
2026-04-21 21:01 37.75072 23.84963 8427 ft 279 kts 155°
2026-04-21 21:01 37.73599 23.86585 8865 ft 297 kts 124°
2026-04-21 21:02 37.72627 23.88939 9382 ft 307 kts 113°
2026-04-21 21:02 37.72100 23.91559 9987 ft 311 kts 92°
2026-04-21 21:02 37.72375 23.94264 10543 ft 316 kts 68°
2026-04-21 21:02 37.73518 23.96670 10808 ft 327 kts 46°
2026-04-21 21:03 37.75123 23.98802 11028 ft 344 kts 42°
2026-04-21 21:03 37.76866 24.00984 11230 ft 361 kts 42°
2026-04-21 21:03 37.78664 24.03290 11449 ft 376 kts 44°
2026-04-21 21:03 37.80465 24.05718 11664 ft 390 kts 45°
2026-04-21 21:04 37.82372 24.08232 11866 ft 401 kts 38°
2026-04-21 21:04 37.84738 24.10085 12251 ft 401 kts 19°
2026-04-21 21:04 37.87419 24.10883 12870 ft 394 kts
2026-04-21 21:04 37.90139 24.10713 13422 ft 391 kts 350°
2026-04-21 21:05 37.92833 24.10204 13915 ft 393 kts 348°
2026-04-21 21:05 37.95549 24.09642 14345 ft 397 kts 348°
2026-04-21 21:05 37.98284 24.09102 14807 ft 400 kts 348°
2026-04-21 21:05 38.01015 24.08612 15264 ft 402 kts 349°
2026-04-21 21:06 38.03798 24.08143 15705 ft 405 kts 349°
2026-04-21 21:06 38.06601 24.07671 16140 ft 407 kts 349°
2026-04-21 21:06 38.09420 24.07179 16567 ft 410 kts 349°
2026-04-21 21:06 38.12247 24.06673 16992 ft 412 kts 349°
2026-04-21 21:07 38.15093 24.06160 17393 ft 414 kts 348°
2026-04-21 21:07 38.17954 24.05648 17800 ft 417 kts 348°
2026-04-21 21:07 38.20830 24.05138 18202 ft 419 kts 348°
2026-04-21 21:07 38.23685 24.04633 18581 ft 421 kts 348°
2026-04-21 21:08 38.26593 24.04117 18960 ft 423 kts 348°
2026-04-21 21:08 38.29513 24.03596 19327 ft 425 kts 348°
2026-04-21 21:08 38.32443 24.03072 19694 ft 427 kts 348°
2026-04-21 21:08 38.35398 24.02543 20052 ft 429 kts 348°
2026-04-21 21:09 38.38363 24.02014 20408 ft 431 kts 348°
2026-04-21 21:09 38.41338 24.01482 20748 ft 433 kts 348°
2026-04-21 21:09 38.44333 24.00945 21085 ft 435 kts 348°
2026-04-21 21:09 38.47296 24.00414 21405 ft 437 kts 348°
2026-04-21 21:10 38.50317 23.99873 21728 ft 439 kts 348°
2026-04-21 21:10 38.53348 23.99330 22055 ft 441 kts 348°
2026-04-21 21:10 38.56388 23.98785 22371 ft 443 kts 348°
2026-04-21 21:10 38.59446 23.98235 22670 ft 444 kts 348°
2026-04-21 21:11 38.62513 23.97681 22974 ft 446 kts 348°
2026-04-21 21:11 38.65592 23.97124 23277 ft 447 kts 348°
2026-04-21 21:11 38.68682 23.96566 23558 ft 449 kts 348°
2026-04-21 21:11 38.71738 23.96015 23833 ft 451 kts 348°
2026-04-21 21:12 38.74854 23.95454 24111 ft 453 kts 348°
2026-04-21 21:12 38.77979 23.94890 24379 ft 454 kts 348°
2026-04-21 21:12 38.81115 23.94324 24657 ft 455 kts 348°
2026-04-21 21:12 38.84259 23.93755 24911 ft 457 kts 348°
2026-04-21 21:13 38.87409 23.93183 25159 ft 459 kts 348°
2026-04-21 21:13 38.90576 23.92608 25406 ft 460 kts 348°
2026-04-21 21:13 38.93745 23.92031 25650 ft 461 kts 348°
2026-04-21 21:13 38.96926 23.91452 25906 ft 461 kts 348°
2026-04-21 21:14 39.00060 23.90882 26218 ft 460 kts 348°
2026-04-21 21:14 39.03224 23.90308 26559 ft 458 kts 348°
2026-04-21 21:14 39.06378 23.89734 26862 ft 458 kts 347°
2026-04-21 21:14 39.09527 23.89157 27177 ft 456 kts 347°
2026-04-21 21:15 39.12659 23.88583 27495 ft 455 kts 347°
2026-04-21 21:15 39.15800 23.88007 27823 ft 454 kts 347°
2026-04-21 21:15 39.18922 23.87436 28142 ft 453 kts 347°
2026-04-21 21:15 39.21992 23.86876 28451 ft 451 kts 347°
2026-04-21 21:16 39.25096 23.86311 28760 ft 450 kts 347°
2026-04-21 21:16 39.28192 23.85743 29076 ft 449 kts 347°
2026-04-21 21:16 39.31286 23.85173 29390 ft 448 kts 347°
2026-04-21 21:16 39.34363 23.84608 29712 ft 446 kts 347°
2026-04-21 21:17 39.37430 23.84044 30012 ft 445 kts 346°
2026-04-21 21:17 39.40491 23.83480 30304 ft 444 kts 346°
2026-04-21 21:17 39.43548 23.82915 30549 ft 444 kts 346°
2026-04-21 21:17 39.46603 23.82350 30817 ft 443 kts 346°
2026-04-21 21:18 39.49614 23.81794 31061 ft 443 kts 346°
2026-04-21 21:18 39.52670 23.81229 31309 ft 443 kts 346°
2026-04-21 21:18 39.55721 23.80666 31554 ft 443 kts 346°
2026-04-21 21:18 39.58771 23.80102 31791 ft 442 kts 346°
2026-04-21 21:19 39.61815 23.79540 32052 ft 442 kts 346°
2026-04-21 21:19 39.64856 23.78976 32267 ft 442 kts 346°
2026-04-21 21:19 39.67900 23.78410 32485 ft 442 kts 346°
2026-04-21 21:19 39.70899 23.77851 32708 ft 441 kts 346°
2026-04-21 21:20 39.73936 23.77287 32915 ft 441 kts 346°
2026-04-21 21:20 39.76979 23.76721 33094 ft 442 kts 345°
2026-04-21 21:20 39.80020 23.76155 33317 ft 441 kts 345°
2026-04-21 21:20 39.83054 23.75591 33536 ft 441 kts 345°
2026-04-21 21:21 39.86092 23.75023 33718 ft 441 kts 345°
2026-04-21 21:21 39.89124 23.74456 33912 ft 441 kts 345°
2026-04-21 21:21 39.92162 23.73888 34091 ft 441 kts 345°
2026-04-21 21:21 39.95156 23.73328 34271 ft 440 kts 345°
2026-04-21 21:22 39.98187 23.72762 34443 ft 440 kts 345°
2026-04-21 21:22 40.01219 23.72193 34611 ft 440 kts 345°
2026-04-21 21:22 40.04250 23.71624 34773 ft 440 kts 345°
2026-04-21 21:22 40.07279 23.71055 34929 ft 440 kts 345°
2026-04-21 21:23 40.10309 23.70486 35082 ft 440 kts 345°
2026-04-21 21:23 40.13334 23.69917 35263 ft 439 kts 345°
2026-04-21 21:23 40.16355 23.69349 35414 ft 438 kts 345°
2026-04-21 21:23 40.19335 23.68787 35540 ft 438 kts 345°
2026-04-21 21:24 40.22354 23.68217 35661 ft 439 kts 345°
2026-04-21 21:24 40.25376 23.67646 35779 ft 438 kts 345°
2026-04-21 21:24 40.28394 23.67076 35895 ft 438 kts 345°
2026-04-21 21:24 40.31416 23.66504 35950 ft 440 kts 345°
2026-04-21 21:25 40.37478 23.65355 35956 ft 440 kts 345°
2026-04-21 21:25 40.43544 23.64206 35959 ft 440 kts 345°
2026-04-21 21:26 40.49558 23.63063 35961 ft 440 kts 345°
2026-04-21 21:26 40.55620 23.61907 35970 ft 442 kts 345°
2026-04-21 21:27 40.61725 23.60742 36017 ft 444 kts 345°
2026-04-21 21:27 40.67786 23.59588 36015 ft 442 kts 345°
2026-04-21 21:28 40.73864 23.58425 36013 ft 440 kts 345°
2026-04-21 21:29 40.82925 23.56685 36012 ft 437 kts 345°
2026-04-21 21:29 40.88905 23.55535 35984 ft 437 kts 345°
2026-04-21 21:30 40.94930 23.54371 35943 ft 438 kts 345°
2026-04-21 21:30 41.00955 23.53209 35961 ft 437 kts 345°
2026-04-21 21:31 41.06979 23.52044 35955 ft 438 kts 345°
2026-04-21 21:31 41.12962 23.50886 35959 ft 437 kts 345°
2026-04-21 21:32 41.18983 23.49716 35958 ft 437 kts 345°
2026-04-21 21:32 41.25002 23.48545 35948 ft 437 kts 345°
2026-04-21 21:33 41.31020 23.47373 35949 ft 437 kts 345°
2026-04-21 21:33 41.37038 23.46197 35953 ft 437 kts 345°
2026-04-21 21:34 41.42738 23.44060 35960 ft 423 kts 330°
2026-04-21 21:34 41.48020 23.40585 35959 ft 425 kts 328°
2026-04-21 21:35 41.53337 23.37007 35994 ft 431 kts 329°
2026-04-21 21:35 41.58727 23.33536 36017 ft 425 kts 329°
2026-04-21 21:36 41.63996 23.30105 36016 ft 424 kts 328°
2026-04-21 21:36 41.69278 23.26614 36018 ft 424 kts 328°
2026-04-21 21:37 41.74564 23.23143 36020 ft 423 kts 329°
2026-04-21 21:37 41.79815 23.19693 36027 ft 423 kts 328°
2026-04-21 21:38 41.85088 23.16212 36062 ft 422 kts 328°
2026-04-21 21:38 41.90353 23.12732 36061 ft 422 kts 328°
2026-04-21 21:39 41.95623 23.09247 36061 ft 422 kts 328°
2026-04-21 21:39 42.00850 23.05778 36060 ft 422 kts 328°
2026-04-21 21:40 42.06114 23.02277 36082 ft 421 kts 328°
2026-04-21 21:40 42.11370 22.98781 36080 ft 422 kts 328°
2026-04-21 21:41 42.16628 22.95275 36082 ft 422 kts 328°
2026-04-21 21:41 42.21886 22.91762 36083 ft 422 kts 328°
2026-04-21 21:42 42.27105 22.88269 36085 ft 422 kts 328°
2026-04-21 21:42 42.32357 22.84745 36094 ft 421 kts 328°
2026-04-21 21:43 42.37609 22.81215 36096 ft 421 kts 328°
2026-04-21 21:43 42.42860 22.77682 36094 ft 422 kts 328°
2026-04-21 21:44 42.48074 22.74167 36093 ft 421 kts 328°
2026-04-21 21:44 42.53320 22.70618 36099 ft 421 kts 328°
2026-04-21 21:45 42.58565 22.67070 36096 ft 421 kts 328°
2026-04-21 21:45 42.63808 22.63515 36098 ft 421 kts 328°
2026-04-21 21:46 42.69010 22.59975 36101 ft 421 kts 328°
2026-04-21 21:46 42.74245 22.56413 36100 ft 421 kts 328°
2026-04-21 21:47 42.79479 22.52842 36098 ft 421 kts 328°
2026-04-21 21:47 42.84713 22.49265 36100 ft 420 kts 328°
2026-04-21 21:48 42.89939 22.45703 36101 ft 420 kts 328°
2026-04-21 21:48 42.95142 22.42180 36098 ft 420 kts 328°
2026-04-21 21:49 43.00368 22.38617 36098 ft 420 kts 328°
2026-04-21 21:49 43.05586 22.35049 36100 ft 419 kts 328°
2026-04-21 21:50 43.10801 22.31484 36098 ft 419 kts 327°
2026-04-21 21:50 43.15983 22.27928 36100 ft 419 kts 327°
2026-04-21 21:51 43.21189 22.24352 36097 ft 419 kts 327°
2026-04-21 21:51 43.26400 22.20769 36100 ft 418 kts 327°
2026-04-21 21:52 43.31595 22.17181 36099 ft 418 kts 327°
2026-04-21 21:52 43.36759 22.13615 36091 ft 418 kts 327°
2026-04-21 21:53 43.41957 22.10018 36097 ft 418 kts 327°
2026-04-21 21:53 43.47149 22.06418 36101 ft 418 kts 327°
2026-04-21 21:54 43.52338 22.02812 36101 ft 418 kts 327°
2026-04-21 21:54 43.57490 21.99224 36099 ft 417 kts 327°
2026-04-21 21:55 43.62674 21.95610 36101 ft 417 kts 327°
2026-04-21 21:55 43.67851 21.91989 36104 ft 417 kts 326°
2026-04-21 21:56 43.73022 21.88369 36102 ft 417 kts 326°
2026-04-21 21:56 43.78162 21.84765 36104 ft 417 kts 326°
2026-04-21 21:57 43.83329 21.81130 36107 ft 417 kts 326°
2026-04-21 21:57 43.88497 21.77489 36100 ft 417 kts 326°
2026-04-21 21:58 43.93670 21.73837 36076 ft 417 kts 326°
2026-04-21 21:58 43.98809 21.70205 36075 ft 417 kts 326°
2026-04-21 21:59 44.03980 21.66542 36056 ft 418 kts 326°
2026-04-21 21:59 44.09162 21.62859 36030 ft 418 kts 326°
2026-04-21 22:00 44.14339 21.59180 36032 ft 418 kts 326°
2026-04-21 22:00 44.19522 21.55488 36029 ft 418 kts 326°
2026-04-21 22:01 44.24662 21.51816 36032 ft 418 kts 326°
2026-04-21 22:01 44.29835 21.48115 36032 ft 418 kts 327°
2026-04-21 22:02 44.35013 21.44401 36031 ft 418 kts 327°
2026-04-21 22:02 44.40213 21.40662 36038 ft 423 kts 327°
2026-04-21 22:03 44.45449 21.36891 36081 ft 429 kts 327°
2026-04-21 22:03 44.50713 21.33106 36089 ft 421 kts 327°
2026-04-21 22:04 44.55917 21.29336 36090 ft 421 kts 327°
2026-04-21 22:04 44.61133 21.25552 36092 ft 422 kts 327°
2026-04-21 22:05 44.66315 21.21796 36094 ft 423 kts 327°
2026-04-21 22:05 44.71538 21.17999 36075 ft 422 kts 327°
2026-04-21 22:06 44.76754 21.14194 36046 ft 423 kts 327°
2026-04-21 22:06 44.82019 21.10347 36058 ft 429 kts 327°
2026-04-21 22:07 44.87351 21.06449 36105 ft 432 kts 327°
2026-04-21 22:07 44.92582 21.02620 36102 ft 425 kts 327°
2026-04-21 22:08 44.97829 20.98755 36098 ft 425 kts 327°
2026-04-21 22:08 45.03086 20.94887 36096 ft 426 kts 327°
2026-04-21 22:09 45.08345 20.91007 36096 ft 426 kts 327°
2026-04-21 22:09 45.13566 20.87149 36102 ft 426 kts 327°
2026-04-21 22:10 45.18817 20.83248 36103 ft 426 kts 327°
2026-04-21 22:10 45.24076 20.79347 36082 ft 427 kts 327°
2026-04-21 22:11 45.29344 20.75433 36076 ft 428 kts 327°
2026-04-21 22:11 45.34580 20.71524 36063 ft 428 kts 327°
2026-04-21 22:12 45.39857 20.67583 36070 ft 428 kts 328°
2026-04-21 22:12 45.45134 20.63630 36054 ft 429 kts 327°
2026-04-21 22:13 45.50417 20.59664 36052 ft 430 kts 328°
2026-04-21 22:13 45.55677 20.55708 36068 ft 430 kts 328°
2026-04-21 22:14 45.60971 20.51718 36075 ft 430 kts 328°
2026-04-21 22:14 45.66264 20.47721 36110 ft 430 kts 328°
2026-04-21 22:15 45.71561 20.43712 36095 ft 431 kts 328°
2026-04-21 22:15 45.76828 20.39715 36125 ft 431 kts 328°
2026-04-21 22:16 45.82134 20.35683 36118 ft 432 kts 328°
2026-04-21 22:16 45.87445 20.31637 36139 ft 432 kts 328°
2026-04-21 22:17 45.92761 20.27577 36143 ft 433 kts 328°
2026-04-21 22:17 45.98081 20.23506 36145 ft 433 kts 328°
2026-04-21 22:18 46.03362 20.19455 36157 ft 433 kts 328°
2026-04-21 22:18 46.08682 20.15366 36161 ft 433 kts 328°
2026-04-21 22:19 46.14002 20.11270 36166 ft 433 kts 328°
2026-04-21 22:19 46.19276 20.07173 36167 ft 433 kts 327°
2026-04-21 22:20 46.24531 20.02918 36169 ft 433 kts 327°
2026-04-21 22:20 46.29797 19.98664 36174 ft 433 kts 327°
2026-04-21 22:21 46.35075 19.94439 36175 ft 434 kts 327°
2026-04-21 22:21 46.40344 19.90185 36175 ft 434 kts 327°
2026-04-21 22:22 46.45573 19.85955 36179 ft 434 kts 327°
2026-04-21 22:22 46.50844 19.81686 36181 ft 434 kts 327°
2026-04-21 22:23 46.56108 19.77411 36178 ft 434 kts 327°
2026-04-21 22:23 46.61376 19.73125 36163 ft 434 kts 327°
2026-04-21 22:24 46.66618 19.68849 36166 ft 435 kts 327°
2026-04-21 22:24 46.71903 19.64530 36130 ft 436 kts 327°
2026-04-21 22:25 46.77197 19.60190 36113 ft 437 kts 328°
2026-04-21 22:25 46.82492 19.55845 36135 ft 437 kts 328°
2026-04-21 22:26 46.87756 19.51513 36129 ft 437 kts 328°
2026-04-21 22:26 46.93057 19.47139 36160 ft 437 kts 328°
2026-04-21 22:27 46.98363 19.42754 36139 ft 438 kts 328°
2026-04-21 22:27 47.03671 19.38352 36143 ft 439 kts 328°
2026-04-21 22:28 47.08991 19.33931 36151 ft 439 kts 328°
2026-04-21 22:28 47.14264 19.29542 36188 ft 439 kts 328°
2026-04-21 22:29 47.19585 19.25107 36178 ft 440 kts 328°
2026-04-21 22:29 47.24903 19.20654 36189 ft 440 kts 328°
2026-04-21 22:30 47.30213 19.16155 36187 ft 440 kts 325°
2026-04-21 22:30 47.34650 19.10195 36177 ft 435 kts 306°
2026-04-21 22:31 47.37494 19.02349 36141 ft 435 kts 294°
2026-04-21 22:31 47.39945 18.94186 36162 ft 435 kts 294°
2026-04-21 22:32 47.42476 18.86080 36191 ft 435 kts 295°
2026-04-21 22:32 47.45019 18.78029 36181 ft 436 kts 295°
2026-04-21 22:33 47.47532 18.69863 36198 ft 436 kts 294°
2026-04-21 22:33 47.50046 18.61720 36013 ft 433 kts 295°
2026-04-21 22:33 47.51296 18.57676 35474 ft 431 kts 295°
2026-04-21 22:34 47.52543 18.53633 34608 ft 435 kts 295°
2026-04-21 22:34 47.53763 18.49583 33801 ft 437 kts 292°
2026-04-21 22:34 47.54764 18.45334 33061 ft 437 kts 288°
2026-04-21 22:34 47.55688 18.41045 32321 ft 437 kts 288°
2026-04-21 22:35 47.56592 18.36750 31579 ft 437 kts 287°
2026-04-21 22:35 47.57492 18.32458 30800 ft 437 kts 287°
2026-04-21 22:35 47.58403 18.28156 30022 ft 437 kts 287°
2026-04-21 22:35 47.59315 18.23871 29213 ft 436 kts 287°
2026-04-21 22:36 47.61134 18.15284 27292 ft 442 kts 287°
2026-04-21 22:36 47.62051 18.10923 26262 ft 445 kts 288°
2026-04-21 22:36 47.62973 18.06545 25199 ft 447 kts 288°
2026-04-21 22:37 47.63902 18.02139 24140 ft 448 kts 288°
2026-04-21 22:37 47.64828 17.97716 23175 ft 448 kts 288°
2026-04-21 22:37 47.65738 17.93336 22485 ft 440 kts 288°
2026-04-21 22:37 47.66637 17.89022 21621 ft 436 kts 288°
2026-04-21 22:38 47.67529 17.84741 20759 ft 432 kts 288°
2026-04-21 22:38 47.68408 17.80507 19897 ft 428 kts 288°
2026-04-21 22:38 47.69279 17.76304 19055 ft 424 kts 288°
2026-04-21 22:38 47.70127 17.72201 18234 ft 419 kts 288°
2026-04-21 22:39 47.70965 17.68127 17300 ft 406 kts 288°
2026-04-21 22:39 47.71787 17.64149 16075 ft 401 kts 288°
2026-04-21 22:39 47.72608 17.60184 14664 ft 402 kts 288°
2026-04-21 22:39 47.73420 17.56233 13456 ft 398 kts 288°
2026-04-21 22:40 47.74209 17.52350 12587 ft 386 kts 288°
2026-04-21 22:40 47.74982 17.48646 12108 ft 364 kts 289°
2026-04-21 22:40 47.75741 17.45177 11844 ft 341 kts 289°
2026-04-21 22:40 47.76452 17.41932 11618 ft 321 kts 289°
2026-04-21 22:41 47.77113 17.38899 11365 ft 305 kts 289°
2026-04-21 22:41 47.77753 17.35968 11101 ft 292 kts 290°
2026-04-21 22:41 47.78370 17.33150 10725 ft 284 kts 290°
2026-04-21 22:41 47.78983 17.30344 10066 ft 287 kts 290°
2026-04-21 22:42 47.79599 17.27509 9484 ft 288 kts 290°
2026-04-21 22:42 47.80209 17.24679 8923 ft 287 kts 290°
2026-04-21 22:42 47.80819 17.21877 8491 ft 282 kts 291°
2026-04-21 22:42 47.81416 17.19131 8129 ft 276 kts 291°
2026-04-21 22:43 47.81992 17.16463 7800 ft 273 kts 290°
2026-04-21 22:43 47.82571 17.13774 7487 ft 273 kts 291°
2026-04-21 22:43 47.83158 17.11079 7159 ft 274 kts 291°
2026-04-21 22:43 47.83742 17.08368 6832 ft 275 kts 291°
2026-04-21 22:44 47.84322 17.05656 6508 ft 276 kts 291°
2026-04-21 22:44 47.84907 17.02932 6183 ft 276 kts 291°
2026-04-21 22:44 47.85489 17.00224 5860 ft 273 kts 291°
2026-04-21 22:44 47.86066 16.97537 5541 ft 271 kts 290°
2026-04-21 22:45 47.86627 16.94913 5244 ft 268 kts 290°
2026-04-21 22:45 47.87189 16.92276 4960 ft 266 kts 290°
2026-04-21 22:45 47.87750 16.89645 4651 ft 267 kts 290°
2026-04-21 22:45 47.88311 16.87012 4339 ft 268 kts 290°
2026-04-21 22:46 47.88878 16.84365 4026 ft 267 kts 289°
2026-04-21 22:46 47.89436 16.81743 3716 ft 264 kts 289°
2026-04-21 22:46 47.89985 16.79141 3410 ft 262 kts 289°
2026-04-21 22:46 47.90532 16.76564 3113 ft 259 kts 289°
2026-04-21 22:47 47.91064 16.74080 2999 ft 249 kts 289°
2026-04-21 22:47 47.91575 16.71700 2994 ft 234 kts 289°
2026-04-21 22:47 47.92049 16.69462 2994 ft 219 kts 289°
2026-04-21 22:47 47.92539 16.67348 2990 ft 215 kts 298°
2026-04-21 22:48 47.93560 16.65783 2992 ft 212 kts 331°
2026-04-21 22:48 47.94903 16.65015 3002 ft 200 kts 344°
2026-04-21 22:48 47.96195 16.64472 3000 ft 186 kts 345°
2026-04-21 22:48 47.97399 16.63974 2984 ft 174 kts 345°
2026-04-21 22:49 47.98527 16.63497 2758 ft 167 kts 345°
2026-04-21 22:49 47.99614 16.63040 2539 ft 158 kts 344°
2026-04-21 22:49 48.00641 16.62606 2324 ft 150 kts 344°
2026-04-21 22:49 48.01612 16.62197 2148 ft 140 kts 344°
2026-04-21 22:50 48.02547 16.61802 1951 ft 139 kts 343°
2026-04-21 22:50 48.03476 16.61410 1755 ft 139 kts 342°
2026-04-21 22:50 48.04404 16.61018 1566 ft 138 kts 342°
2026-04-21 22:50 48.05315 16.60634 1383 ft 138 kts 342°
2026-04-21 22:51 48.06236 16.60245 1199 ft 137 kts 342°
2026-04-21 22:51 48.07153 16.59857 1016 ft 137 kts 342°
2026-04-21 22:51 48.08068 16.59470 824 ft 136 kts 342°
2026-04-21 22:51 48.08979 16.59086 643 ft 135 kts 342°
2026-04-21 22:52 48.09828 16.58729 615 ft 114 kts 342°
2026-04-21 22:52 48.10414 16.58478 615 ft 61 kts 344°
2026-04-21 22:52 48.10689 16.58333 614 ft 34 kts 321°
2026-04-21 22:52 48.10826 16.58134 614 ft 24 kts 315°
2026-04-21 22:53 48.10948 16.57952 614 ft 26 kts 314°
2026-04-21 22:53 48.11056 16.57745 614 ft 24 kts 297°
2026-04-21 22:53 48.11125 16.57533 614 ft 22 kts 296°
2026-04-21 22:53 48.11188 16.57340 614 ft 21 kts 296°
2026-04-21 22:54 48.11250 16.57148 614 ft 21 kts 296°
2026-04-21 22:54 48.11351 16.57066 614 ft 17 kts 341°
2026-04-21 22:54 48.11412 16.56934 614 ft 15 kts 296°
2026-04-21 22:54 48.11499 16.56903 614 ft 15 kts 25°
2026-04-21 22:55 48.11582 16.56912 614 ft 7 kts 294°
2026-04-21 22:55 48.11622 16.56887 614 ft 8 kts 15°
2026-04-21 22:55 48.11665 16.56914 614 ft 6 kts 25°
2026-04-21 22:55 48.11677 16.56923 614 ft 0 kts 25°